TimeEST,TemperatureF,Dew PointF,Humidity,Sea Level PressureIn,VisibilityMPH,Wind Direction,Wind SpeedMPH,Gust SpeedMPH,PrecipitationIn,Events,Conditions,WindDirDegrees,DateUTC
12:56 AM,33.1,23.0,66,30.31,10.0,East,15.0,-,N/A,,Overcast,90,2013-02-08 05:56:00
1:19 AM,33.8,23.0,65,30.30,10.0,East,13.8,-,N/A,,Overcast,90,2013-02-08 06:19:00
1:56 AM,33.1,24.1,70,30.30,10.0,East,11.5,-,N/A,,Overcast,80,2013-02-08 06:56:00
2:56 AM,34.0,25.0,70,30.26,10.0,ENE,11.5,-,N/A,,Overcast,70,2013-02-08 07:56:00
3:56 AM,35.1,26.1,70,30.22,10.0,ENE,8.1,-,N/A,,Overcast,70,2013-02-08 08:56:00
4:56 AM,34.0,25.0,70,30.19,10.0,NE,9.2,-,N/A,,Overcast,50,2013-02-08 09:56:00
5:56 AM,34.0,27.0,75,30.17,10.0,ENE,9.2,-,N/A,,Overcast,60,2013-02-08 10:56:00
6:56 AM,35.1,30.0,82,30.14,4.0,East,12.7,20.7,0.02,Rain-Snow,Light Snow,80,2013-02-08 11:56:00
7:56 AM,34.0,30.0,85,30.12,3.0,ENE,13.8,-,0.04,Snow,Light Snow,70,2013-02-08 12:56:00
8:16 AM,33.8,30.2,87,30.11,2.0,ENE,10.4,-,0.00,Snow,Light Snow,70,2013-02-08 13:16:00
8:56 AM,34.0,30.9,89,30.09,1.5,ENE,15.0,-,0.03,Snow,Light Snow,70,2013-02-08 13:56:00
9:09 AM,33.8,30.2,87,30.07,1.5,ENE,12.7,-,0.01,Snow,Light Snow,70,2013-02-08 14:09:00
9:56 AM,34.0,30.9,89,30.04,3.0,ENE,16.1,-,0.05,Rain,Light Rain,70,2013-02-08 14:56:00
10:33 AM,33.8,32.0,93,30.00,3.0,ENE,18.4,26.5,0.04,Rain,Light Rain,60,2013-02-08 15:33:00
10:56 AM,35.1,30.9,85,29.98,4.0,ENE,18.4,27.6,0.07,Rain,Light Rain,60,2013-02-08 15:56:00
11:56 AM,35.1,30.9,85,29.91,4.0,ENE,24.2,35.7,0.06,Rain,Light Rain,60,2013-02-08 16:56:00
12:56 PM,35.1,32.0,89,29.84,5.0,NE,24.2,31.1,0.07,Rain,Light Rain,50,2013-02-08 17:56:00
1:56 PM,34.0,30.9,89,29.76,5.0,NE,20.7,31.1,0.04,Rain-Snow,Light Rain,50,2013-02-08 18:56:00
2:30 PM,33.8,30.2,87,29.72,1.5,NE,20.7,36.8,0.05,Snow,Light Snow,50,2013-02-08 19:30:00
2:56 PM,33.1,30.0,89,29.70,3.0,NE,26.5,41.4,0.08,Rain-Snow,Light Ice Pellets,50,2013-02-08 19:56:00
3:52 PM,33.8,30.2,87,29.66,2.5,NE,26.5,39.1,0.16,Snow,Light Snow,50,2013-02-08 20:52:00
3:56 PM,34.0,30.0,85,29.65,2.5,NE,25.3,38.0,0.16,Snow,Light Snow,40,2013-02-08 20:56:00
4:35 PM,33.8,30.2,87,29.65,0.1,NE,24.2,33.4,0.09,Fog-Snow,Snow,50,2013-02-08 21:35:00
4:42 PM,33.8,30.2,87,29.64,0.1,NE,27.6,39.1,0.10,Fog-Snow,Heavy Snow,50,2013-02-08 21:42:00
4:56 PM,32.0,30.0,92,29.64,0.1,NE,28.8,39.1,0.17,Fog-Snow,Heavy Snow,40,2013-02-08 21:56:00
5:04 PM,32.0,30.2,93,29.63,0.2,NE,26.5,39.1,0.04,Fog-Snow,Snow,40,2013-02-08 22:04:00
5:56 PM,32.0,30.0,92,29.60,0.1,NNE,29.9,36.8,0.29,Fog-Snow,Heavy Snow,30,2013-02-08 22:56:00
6:26 PM,32.0,30.2,93,29.57,0.5,NNE,25.3,36.8,0.13,Fog-Snow,Snow,20,2013-02-08 23:26:00
6:45 PM,32.0,30.2,93,29.56,0.2,NNE,26.5,32.2,0.21,Fog-Snow,Heavy Snow,20,2013-02-08 23:45:00
6:56 PM,32.0,30.9,96,29.56,0.2,NNE,24.2,34.5,0.30,Fog-Snow,Heavy Snow,20,2013-02-08 23:56:00
7:56 PM,30.0,28.9,96,29.53,0.5,North,24.2,34.5,0.28,Fog-Snow,Snow,10,2013-02-09 00:56:00
8:14 PM,30.2,28.4,93,29.52,1.0,North,23.0,36.8,0.03,Snow,Light Snow,360,2013-02-09 01:14:00
8:28 PM,28.4,28.4,100,29.52,0.8,North,16.1,28.8,0.06,Snow,Light Snow,360,2013-02-09 01:28:00
8:45 PM,28.4,26.6,93,29.52,0.2,North,24.2,32.2,0.14,Fog-Snow,Heavy Snow,360,2013-02-09 01:45:00
8:56 PM,28.0,27.0,96,29.53,0.1,North,24.2,29.9,0.18,Fog-Snow,Heavy Snow,360,2013-02-09 01:56:00
9:08 PM,28.4,26.6,93,29.52,0.1,North,25.3,40.3,0.02,Fog-Snow,Heavy Snow,360,2013-02-09 02:08:00
9:56 PM,28.0,26.1,92,29.54,0.1,North,21.9,36.8,0.09,Fog-Snow,Heavy Snow,350,2013-02-09 02:56:00
10:50 PM,26.6,24.8,93,29.58,0.1,North,20.7,32.2,0.22,Fog-Snow,Heavy Snow,360,2013-02-09 03:50:00
10:56 PM,26.1,25.0,96,29.59,0.1,NNW,23.0,-,0.22,Fog-Snow,Heavy Snow,340,2013-02-09 03:56:00
11:39 PM,24.8,24.8,100,29.63,0.2,NNW,23.0,34.5,0.05,Fog-Snow,Heavy Snow,340,2013-02-09 04:39:00
11:56 PM,25.0,23.0,92,29.63,0.2,North,26.5,36.8,0.05,Fog-Snow,Heavy Snow,350,2013-02-09 04:56:00